Weather History for KCMX - November, 2012

Change the Weather History Date:

Monday, November 19, 2012

  Actual Average Record
Temperature  
Mean Temperature 46 °F -  
Max Temperature 52 °F 35 °F 52 °F (1953)
Min Temperature 41 °F 25 °F 7 °F (1986)
Degree Days  
Heating Degree Days 18    
Moisture  
Dew Point 33 °F    
Average Humidity 62    
Maximum Humidity 86    
Minimum Humidity 49    
Precipitation  
Precipitation 0.00 in - - ()
Sea Level Pressure  
Sea Level Pressure 30.12 in    
Wind  
Wind Speed 5 mph (South)    
Max Wind Speed 8 mph    
Max Gust Speed -    
Visibility 10 miles    
Events Rain    
Averages and records for this station are not official NWS values.
T = Trace of Precipitation, MM = Missing Value Source: NWS Daily Summary

Daily Weather History Graph

Daily Weather History Graph

Search for Another Location

Airport or City:

Trip Planner

Search our weather history database for the weather conditions in past years. The results will help you decide how hot, cold, wet, or windy it might be!

Date:

Astronomy

Nov. 19, 2012 Rise Set
Actual Time 8:04 AM EST 5:14 PM EST
Civil Twilight 7:30 AM EST 5:47 PM EST
Nautical Twilight 6:53 AM EST 6:25 PM EST
Astronomical Twilight 6:16 AM EST 7:01 PM EST
Moon 12:58 PM EST (11/19) 11:52 PM EST (11/19)
Length of Visible Light 10h 17m
Length of Day
9h 09m
Waxing Crescent, 40% of the Moon is Illuminated
Nov 19
Waxing Crescent
Nov 20
First Quarter
Nov 28
Full
Dec 6
Last Quarter
Dec 13
New

Hourly Weather History & Observations

Time (EST) Temp. Windchill Dew Point Humidity Pressure Visibility Wind Dir Wind Speed Gust Speed Precip Events Conditions
12:53 AM 44.1 °F 39.5 °F 34.0 °F 68% 30.19 in 10.0 mi South 8.1 mph - N/A   Clear
1:53 AM 43.0 °F 38.8 °F 33.1 °F 68% 30.19 in 10.0 mi SSE 6.9 mph - N/A   Clear
2:53 AM 42.1 °F 39.2 °F 32.0 °F 67% 30.19 in 10.0 mi South 4.6 mph - N/A   Clear
3:53 AM 41.0 °F 39.0 °F 32.0 °F 70% 30.18 in 10.0 mi South 3.5 mph - N/A   Clear
4:53 AM 42.1 °F 38.4 °F 30.9 °F 65% 30.17 in 10.0 mi South 5.8 mph - N/A   Mostly Cloudy
5:53 AM 43.0 °F 38.2 °F 30.0 °F 60% 30.17 in 10.0 mi South 8.1 mph - N/A   Overcast
6:53 AM 42.1 °F 40.2 °F 30.0 °F 62% 30.15 in 10.0 mi South 3.5 mph - N/A   Mostly Cloudy
7:53 AM 41.0 °F - 30.0 °F 65% 30.15 in 10.0 mi Calm Calm - N/A   Scattered Clouds
8:53 AM 43.0 °F 41.3 °F 30.9 °F 62% 30.15 in 10.0 mi South 3.5 mph - N/A   Mostly Cloudy
9:53 AM 45.0 °F 41.2 °F 32.0 °F 60% 30.14 in 10.0 mi South 6.9 mph - N/A   Partly Cloudy
10:53 AM 48.0 °F - 32.0 °F 54% 30.14 in 10.0 mi South 6.9 mph - N/A   Mostly Cloudy
11:53 AM 48.9 °F - 32.0 °F 52% 30.12 in 10.0 mi South 5.8 mph - N/A   Mostly Cloudy
12:53 PM 48.9 °F - 33.1 °F 54% 30.12 in 10.0 mi SSW 8.1 mph - N/A   Overcast
1:53 PM 51.1 °F - 33.1 °F 50% 30.09 in 10.0 mi South 4.6 mph - N/A   Overcast
2:53 PM 52.0 °F - 33.1 °F 49% 30.08 in 10.0 mi SSW 5.8 mph - N/A   Overcast
3:53 PM 52.0 °F - 34.0 °F 50% 30.07 in 10.0 mi Calm Calm - N/A   Overcast
4:53 PM 50.0 °F - 35.1 °F 57% 30.07 in 10.0 mi SE 3.5 mph - N/A   Overcast
5:53 PM 46.9 °F - 34.0 °F 61% 30.06 in 10.0 mi Calm Calm - N/A   Scattered Clouds
6:53 PM 46.0 °F 44.8 °F 35.1 °F 66% 30.07 in 10.0 mi East 3.5 mph - N/A   Overcast
7:53 PM 46.9 °F - 35.1 °F 63% 30.06 in 10.0 mi Calm Calm - N/A   Overcast
8:53 PM 50.0 °F - 35.1 °F 57% 30.05 in 10.0 mi SW 4.6 mph - N/A   Overcast
9:53 PM 46.0 °F 42.5 °F 42.1 °F 86% 30.05 in 10.0 mi WNW 6.9 mph - 0.00 in Rain Light Rain
11:53 PM 46.0 °F 44.8 °F 41.0 °F 83% 30.04 in 10.0 mi SW 3.5 mph - N/A   Overcast